User: anonymous   Login
Location: Unspecified
(0.0000°N, 0.0000°E)
Time: 11:14:02
(UTC+00:00)
Language:

TRACE - Orbit

View from above orbital plane
View from above orbital plane
View from above satellite
View from above satellite

Ground track
Ground track

The orbit data is extracted from the following two-line orbital elements,

1 25280U 98020A   18019.59011043 +.00000473 +00000-0 +30703-4 0  9999
2 25280 097.4926 216.4196 0023836 008.7295 351.4346 15.12549849082833
Epoch (UTC): 19 January 2018 14:09:45
Eccentricity: 0.0023836
inclination: 97.4926°
perigee height: 512 km
apogee height: 545 km
right ascension of ascending node: 216.4196°
argument of perigee: 8.7295°
revolutions per day: 15.12549849
mean anomaly at epoch: 351.4346°
orbit number at epoch: 8283

The dashed part of the orbit path shows where the satellite is in the earth's shadow,  

DLR